Home > Weather > Pécs > Past weeks

Flag for Hungary Weather for the Past 2 Weeks in Pécs, Hungary

Now
64 °F

Scattered clouds.


Feels Like: 64 °F
Forecast: 52 / 68 °F
Wind: 2 mph from Northwest

Location: Pecs / Pogany

Current Time: May 6, 2016 at 12:07:35 PM

Latest Report: May 6, 2016 at 11:00 AM


Visibility: 31 mi

Pressure: 30.11 "Hg

Humidity: 53%

Dew Point: 47 °F

Location of PécsLocation

Historic Weather in Pécs — Graph

°F

Pécs Temperature Yesterday

Maximum temperature yesterday: 70 °F (at 5:00 PM)
Minimum temperature yesterday: 49 °F (at 3:00 AM)
Average temperature yesterday: 57 °F

High & Low Weather Summary for the Past Weeks

 TemperatureHumidityPressure
High70 °F (May 5, 5:00 PM)97% (May 1, 10:00 PM)30.36 "Hg (May 1, 10:00 PM)
Low39 °F (Apr 27, 10:00 PM)23% (Apr 22, 1:00 PM)29.53 "Hg (Apr 24, 6:00 AM)
Average54 °F67%29.95 "Hg
* Reported Apr 21 11:00 AM — May 6 11:00 AM, Pécs, Weather by CustomWeather, © 2016

Note: Actual official high and low records may vary slightly from our data, if they occured in-between our weather recording intervals... More about our weather records

Advertising

Pécs Weather History for the Previous 24 Hours

Scroll right to see more
 ConditionsComfort  
Time TempWeatherWind HumidityBarometerVisibility
11:00 AM
Fri, May 6
64 °FScattered clouds.2 mph53%30.11 "Hg31 mi
10:00 AM62 °FScattered clouds.2 mph59%30.12 "Hg28 mi
9:00 AM61 °FPartly sunny.1 mph71%30.12 "Hg25 mi
8:00 AM56 °FPartly sunny.1 mph83%30.12 "Hg22 mi
7:00 AM51 °FOvercast.2 mph93%30.12 "Hg22 mi
6:00 AM48 °FOvercast.1 mph97%30.11 "Hg16 mi
5:00 AM49 °FOvercast.1 mph96%30.12 "Hg19 mi
4:00 AM49 °FOvercast.1 mph94%30.13 "Hg19 mi
3:00 AM51 °FOvercast.1 mph88%30.14 "Hg19 mi
2:00 AM53 °FOvercast.1 mph85%30.14 "Hg19 mi
1:00 AM55 °FOvercast.3 mph77%30.14 "Hg12 mi
12:00 AM55 °FOvercast.6 mph77%30.14 "Hg12 mi
11:00 PM
Thu, May 5
55 °FOvercast.5 mph83%30.15 "Hg12 mi
10:00 PM54 °FOvercast.5 mph89%30.15 "Hg12 mi
9:00 PM56 °FOvercast.3 mph78%30.16 "Hg9 mi
8:00 PM57 °FOvercast.6 mph74%30.16 "Hg12 mi
7:00 PM57 °FThunderstorms. Overcast.8 mph70%30.12 "Hg19 mi
6:00 PM60 °FThundershowers. Overcast.7 mph67%30.11 "Hg9 mi
5:00 PM70 °FPartly sunny.5 mph52%30.09 "Hg9 mi
4:00 PM69 °FPartly sunny.3 mph47%30.09 "Hg19 mi
3:00 PM67 °FPartly sunny.2 mph48%30.11 "Hg19 mi
2:00 PM68 °FPartly sunny.3 mph51%30.12 "Hg19 mi
1:00 PM67 °FPartly sunny.3 mph55%30.13 "Hg19 mi
12:00 PM64 °FScattered clouds.5 mph62%30.14 "Hg19 mi
Weather by CustomWeather, © 2016

See weather overviewHow to use our weather pages